Regional Weather Roundup
Issued by NWS

Home | Current Version | Previous Version | Graphics & Text | Print | Product List | Glossary On
Versions: 1 2 3 4 5 6 7 8 9 10 11 12 13 14 15 16 17 18 19 20 21 22 23 24 25 26 27 28 29 30 31 32 33 34 35 36 37 38 39 40 41 42 43 44 45 46 47 48 49 50
191
ASUS43 KBIS 041502
RWRND

NORTH DAKOTA REGIONAL WEATHER ROUNDUP
NATIONAL WEATHER SERVICE BISMARCK ND
900 AM CST SUN DEC 04 2016

NOTE: "FAIR" INDICATES FEW OR NO CLOUDS BELOW 12,000 FEET WITH NO
SIGNIFICANT WEATHER AND/OR OBSTRUCTIONS TO VISIBILITY.


NDZ001>003-009>011-017-041600-
NORTHWEST NORTH DAKOTA

CITY           SKY/WX    TMP DP  RH WIND       PRES   REMARKS
WILLISTON      CLEAR     20  17  88 SW5       29.76S WCI  13
MINOT          CLOUDY    28  25  88 W14       29.71R WCI  17
MINOT AFB      CLOUDY    26  24  90 NW14      29.70R WCI  15
$$

NDZ018>021-031>035-040>046-041600-
SOUTHWEST NORTH DAKOTA

CITY           SKY/WX    TMP DP  RH WIND       PRES   REMARKS
BISMARCK       PTCLDY    30  27  88 W9        29.76S
DICKINSON      CLEAR     19  14  81 W15       29.74S WCI   5
GARRISON         N/A     31  27  85 NW13      29.72R
HETTINGER ARPT CLEAR     18  13  80 W7        29.81S WCI   9
$$

NDZ004>008-012>016-024-026-027-054-041600-
NORTHEAST NORTH DAKOTA

CITY           SKY/WX    TMP DP  RH WIND       PRES   REMARKS
GRAND FORKS    CLOUDY    34  32  92 S10       29.69S
GRND FRKS AFB  CLOUDY    33  31  94 SW8       29.69S
DEVILS LAKE    FLURRIES  26  24  92 W13       29.68S WCI  15
$$

NDZ022-023-025-028>030-036>039-047>053-041600-
SOUTHEAST NORTH DAKOTA

CITY           SKY/WX    TMP DP  RH WIND       PRES   REMARKS
FARGO          LGT SNOW  34  31  88 S13       29.73S VSB 3/4
JAMESTOWN      CLOUDY    33  30  88 W12       29.70S
$$





USA.gov is the U.S. government's official web portal to all federal, state and local government web resources and services.